Shawnee, OK

9:29 AM CDT on May 27, 2017 (GMT -0500)
Shawnee Municipal

Weather History for KSNL - August, 2014

Change the Weather History Date:

Sunday, August 17, 2014

  Actual Average (KTIK) Record (KTIK)
Temperature  
Mean Temperature 84 °F -  
Max Temperature 96 °F 89 °F 100 °F (2003)
Min Temperature 73 °F 68 °F 64 °F (2004)
Cooling Degree Days 20    
Growing Degree Days 34 (Base 50)    
Moisture  
Dew Point 74 °F    
Average Humidity 72    
Maximum Humidity 94    
Minimum Humidity 49    
Precipitation  
Precipitation 0.00 in - - ()
Sea Level Pressure  
Sea Level Pressure 29.94 in    
Wind  
Wind Speed 5 mph (SSW)    
Max Wind Speed 10 mph    
Max Gust Speed -    
Visibility 10 miles    
Events      
Averages and records for this station are not official NWS values.
T = Trace of Precipitation, MM = Missing Value Source: NWS Daily Summary

Daily Weather History Graph

Daily Weather History Graph

Search for Another Location

Airport or City:

Trip Planner

Search our weather history database for the weather conditions in past years. The results will help you decide how hot, cold, wet, or windy it might be!

Date:

Astronomy

Aug. 17, 2014 Rise Set
Actual Time 6:48 AM CDT 8:14 PM CDT
Civil Twilight 6:21 AM CDT 8:40 PM CDT
Nautical Twilight 5:49 AM CDT 9:13 PM CDT
Astronomical Twilight 5:16 AM CDT 9:46 PM CDT
Moon 12:16 AM CDT (8/17) 2:18 PM CDT (8/17)
Length of Visible Light 14h 19m
Length of Day
13h 25m
Waning Gibbous, 48% of the Moon is Illuminated
Aug 17
Waning Gibbous
Aug 25
New
Sep 2
First Quarter
Sep 8
Full
Sep 15
Last Quarter

Hourly Weather History & Observations

Time (CDT) Temp. Heat Index Dew Point Humidity Pressure Visibility Wind Dir Wind Speed Gust Speed Precip Events Conditions
12:15 AM 78.8 °F - 73.4 °F 83% 29.93 in 10.0 mi South 5.8 mph - N/A   Clear
12:55 AM 78.8 °F - 73.4 °F 83% 29.94 in 10.0 mi SSW 5.8 mph - N/A   Clear
1:15 AM 78.8 °F - 71.6 °F 78% 29.94 in 10.0 mi SSW 4.6 mph - N/A   Clear
1:35 AM 78.8 °F - 71.6 °F 78% 29.94 in 10.0 mi SW 6.9 mph - N/A   Clear
1:55 AM 78.8 °F - 71.6 °F 78% 29.93 in 10.0 mi SSW 6.9 mph - N/A   Clear
2:15 AM 78.8 °F - 71.6 °F 78% 29.93 in 10.0 mi SW 4.6 mph - N/A   Clear
2:35 AM 77.0 °F - 71.6 °F 83% 29.93 in 10.0 mi SW 4.6 mph - N/A   Clear
2:55 AM 77.0 °F - 71.6 °F 83% 29.93 in 10.0 mi SW 3.5 mph - N/A   Clear
3:15 AM 77.0 °F - 71.6 °F 83% 29.93 in 10.0 mi SW 3.5 mph - N/A   Clear
3:35 AM 77.0 °F - 71.6 °F 83% 29.92 in 10.0 mi Calm Calm - N/A   Clear
3:55 AM 77.0 °F - 71.6 °F 83% 29.93 in 10.0 mi Calm Calm - N/A   Clear
4:15 AM 77.0 °F - 71.6 °F 83% 29.93 in 10.0 mi SSW 3.5 mph - N/A   Clear
4:35 AM 77.0 °F - 73.4 °F 89% 29.93 in 10.0 mi SSW 3.5 mph - N/A   Scattered Clouds
4:55 AM 73.4 °F - 71.6 °F 94% 29.93 in 10.0 mi SSW 4.6 mph - N/A   Scattered Clouds
5:15 AM 73.4 °F - 71.6 °F 94% 29.94 in 10.0 mi SSW 4.6 mph - N/A   Scattered Clouds
5:35 AM 73.4 °F - 71.6 °F 94% 29.94 in 10.0 mi South 3.5 mph - N/A   Scattered Clouds
5:55 AM 73.4 °F - 71.6 °F 94% 29.94 in 10.0 mi SSW 4.6 mph - N/A   Clear
6:15 AM 73.4 °F - 71.6 °F 94% 29.95 in 10.0 mi SW 3.5 mph - N/A   Clear
6:35 AM 73.4 °F - 71.6 °F 94% 29.95 in 10.0 mi SSW 3.5 mph - N/A   Clear
6:55 AM 73.4 °F - 71.6 °F 94% 29.95 in 10.0 mi South 3.5 mph - N/A   Clear
7:15 AM 73.4 °F - 71.6 °F 94% 29.95 in 10.0 mi South 3.5 mph - N/A   Clear
7:35 AM 77.0 °F - 73.4 °F 89% 29.95 in 10.0 mi South 4.6 mph - N/A   Mostly Cloudy
7:55 AM 77.0 °F - 73.4 °F 89% 29.96 in 10.0 mi SSW 3.5 mph - N/A   Mostly Cloudy
8:15 AM 78.8 °F - 73.4 °F 83% 29.96 in 10.0 mi South 3.5 mph - N/A   Scattered Clouds
8:35 AM 78.8 °F - 73.4 °F 83% 29.96 in 10.0 mi South 4.6 mph - N/A   Clear
8:55 AM 80.6 °F 85.4 °F 73.4 °F 79% 29.96 in 10.0 mi SSW 4.6 mph - N/A   Clear
9:15 AM 82.4 °F 88.2 °F 73.4 °F 74% 29.97 in 10.0 mi SSW 6.9 mph - N/A   Clear
9:35 AM 84.2 °F 90.9 °F 73.4 °F 70% 29.97 in 10.0 mi SSW 8.1 mph - N/A   Clear
9:55 AM 86.0 °F 93.4 °F 73.4 °F 66% 29.97 in 10.0 mi SSW 6.9 mph - N/A   Clear
10:15 AM 86.0 °F 93.4 °F 73.4 °F 66% 29.97 in 10.0 mi South 9.2 mph - N/A   Clear
10:35 AM 87.8 °F 99.7 °F 77.0 °F 70% 29.98 in 10.0 mi SSW 6.9 mph - N/A   Clear
11:15 AM 91.4 °F 105.1 °F 77.0 °F 63% 29.99 in 10.0 mi SW 6.9 mph - N/A   Clear
11:35 AM 91.4 °F 105.1 °F 77.0 °F 63% 29.99 in 10.0 mi SW 9.2 mph - N/A   Clear
11:55 AM 91.4 °F 105.1 °F 77.0 °F 63% 29.99 in 10.0 mi SSW 6.9 mph - N/A   Clear
12:15 PM 91.4 °F 102.5 °F 75.2 °F 59% 29.99 in 10.0 mi SSW 4.6 mph - N/A   Clear
12:35 PM 91.4 °F 105.1 °F 77.0 °F 63% 29.98 in 10.0 mi SSW 6.9 mph - N/A   Clear
12:55 PM 91.4 °F 102.5 °F 75.2 °F 59% 29.98 in 10.0 mi South 8.1 mph - N/A   Clear
1:15 PM 95.0 °F 109.7 °F 77.0 °F 56% 29.97 in 10.0 mi SW 6.9 mph - N/A   Clear
1:35 PM 95.0 °F 109.7 °F 77.0 °F 56% 29.97 in 10.0 mi South 6.9 mph - N/A   Clear
1:55 PM 95.0 °F 109.7 °F 77.0 °F 56% 29.97 in 10.0 mi SSW 4.6 mph - N/A   Clear
2:15 PM 95.0 °F 109.7 °F 77.0 °F 56% 29.97 in 10.0 mi SW 3.5 mph - N/A   Clear
2:35 PM 96.8 °F 112.2 °F 77.0 °F 53% 29.97 in 10.0 mi SSW 5.8 mph - N/A   Scattered Clouds
2:55 PM 95.0 °F 109.7 °F 77.0 °F 56% 29.97 in 10.0 mi SW 8.1 mph - N/A   Scattered Clouds
3:15 PM 95.0 °F 109.7 °F 77.0 °F 56% 29.96 in 10.0 mi South 6.9 mph - N/A   Scattered Clouds
3:35 PM 96.8 °F 112.2 °F 77.0 °F 53% 29.96 in 10.0 mi SSW 8.1 mph - N/A   Scattered Clouds
3:55 PM 96.8 °F 112.2 °F 77.0 °F 53% 29.95 in 10.0 mi South 10.4 mph - N/A   Scattered Clouds
4:15 PM 96.8 °F 112.2 °F 77.0 °F 53% 29.94 in 10.0 mi SSW 8.1 mph - N/A   Clear
4:35 PM 96.8 °F 112.2 °F 77.0 °F 53% 29.94 in 10.0 mi SSW 8.1 mph - N/A   Clear
4:55 PM 96.8 °F 112.2 °F 77.0 °F 53% 29.93 in 10.0 mi South 8.1 mph - N/A   Clear
5:15 PM 96.8 °F 112.2 °F 77.0 °F 53% 29.92 in 10.0 mi SSW 6.9 mph - N/A   Clear
5:35 PM 96.8 °F 112.2 °F 77.0 °F 53% 29.92 in 10.0 mi SSW 6.9 mph - N/A   Clear
5:55 PM 95.0 °F 104.5 °F 73.4 °F 49% 29.91 in 10.0 mi South 6.9 mph - N/A   Clear
6:15 PM 95.0 °F 107.4 °F 75.2 °F 53% 29.90 in 10.0 mi SSW 6.9 mph - N/A   Clear
6:35 PM 95.0 °F 107.4 °F 75.2 °F 53% 29.90 in 10.0 mi South 6.9 mph - N/A   Clear
6:55 PM 91.4 °F 102.5 °F 75.2 °F 59% 29.89 in 10.0 mi SSW 8.1 mph - N/A   Clear
7:15 PM 91.4 °F 102.5 °F 75.2 °F 59% 29.89 in 10.0 mi South 4.6 mph - N/A   Clear
7:35 PM 91.4 °F 105.1 °F 77.0 °F 63% 29.89 in 10.0 mi South 5.8 mph - N/A   Clear
7:55 PM 87.8 °F 95.6 °F 73.4 °F 62% 29.90 in 10.0 mi South 5.8 mph - N/A   Clear
8:15 PM 86.0 °F 93.4 °F 73.4 °F 66% 29.90 in 10.0 mi South 5.8 mph - N/A   Clear
8:35 PM 86.0 °F 93.4 °F 73.4 °F 66% 29.91 in 10.0 mi South 5.8 mph - N/A   Clear
8:55 PM 84.2 °F 90.9 °F 73.4 °F 70% 29.91 in 10.0 mi South 5.8 mph - N/A   Clear
9:15 PM 82.4 °F 88.2 °F 73.4 °F 74% 29.92 in 10.0 mi South 5.8 mph - N/A   Clear
9:35 PM 82.4 °F 87.2 °F 71.6 °F 70% 29.93 in 10.0 mi South 5.8 mph - N/A   Clear
9:55 PM 82.4 °F 88.2 °F 73.4 °F 74% 29.93 in 10.0 mi South 8.1 mph - N/A   Clear
10:15 PM 82.4 °F 88.2 °F 73.4 °F 74% 29.94 in 10.0 mi South 8.1 mph - N/A   Clear
10:35 PM 80.6 °F 85.4 °F 73.4 °F 79% 29.94 in 10.0 mi South 8.1 mph - N/A   Clear
10:55 PM 80.6 °F 86.2 °F 75.2 °F 84% 29.95 in 10.0 mi South 6.9 mph - N/A   Clear
11:15 PM 80.6 °F 85.4 °F 73.4 °F 79% 29.95 in 10.0 mi South 5.8 mph - N/A   Scattered Clouds
11:35 PM 78.8 °F - 73.4 °F 83% 29.95 in 10.0 mi South 5.8 mph - N/A   Clear
11:55 PM 78.8 °F - 75.2 °F 89% 29.96 in 10.0 mi South 5.8 mph - N/A   Clear